This demonstration page uses our WeatherBlox Daily Observations layout. Learn more.

Left ArrowRight Arrow

Hourly Observations for February 10, 2022

Temp ( °F °C ) Dew Point ( °F °C ) Humidity (%) Winds ( mph kmh ) Pressure ( in mb ) Visibility ( mi km ) Precip ( " mm )
12:53 am 00:53 Mostly Cloudy 41 5 30 -1.1 65 65 SW 21 33 29.92 1013 10 16 0.00 0.00
1:53 am 01:53 Partly Cloudy 42 5.6 31 -0.6 65 65 SW 22 35 29.89 1012 10 16 0.00 0.00
2:53 am 02:53 Cloudy 45 7.2 32 0 61 61 SW 22 35 29.86 1011 10 16 0.00 0.00
3:53 am 03:53 Clear 45 7.2 32 0 61 61 SW 20 31 29.84 1011 10 16 0.00 0.00
4:53 am 04:53 Clear 48 8.9 33 0.6 56 56 SW 26 43 29.79 1009 10 16 0.00 0.00
5:53 am 05:53 Clear 50 10 32 0 50 50 SW 24 39 29.79 1009 10 16 0.00 0.00
6:53 am 06:53 Clear 50 10 32 0 50 50 SW 24 39 29.77 1008 10 16 0.00 0.00
7:53 am 07:53 Sunny 50 10 32 0 50 50 SW 25 41 29.76 1008 10 16 0.00 0.00
8:53 am 08:53 Sunny 52 11.1 33 0.6 49 49 SW 25 41 29.77 1008 10 16 0.00 0.00
9:53 am 09:53 Sunny 54 12.2 33 0.6 45 45 W 21 33 29.74 1007 10 16 0.00 0.00
10:53 am 10:53 Mostly Cloudy 55 12.8 32 0 42 42 WNW 29 46 29.75 1007 10 16 0.00 0.00
11:53 am 11:53 Sunny 56 13.3 33 0.6 42 42 NNW 20 31 29.78 1008 10 16 0.00 0.00
12:53 pm 12:53 Sunny 53 11.7 26 -3.3 35 35 N 18 30 29.79 1009 10 16 0.00 0.00
1:53 pm 13:53 Cloudy 51 10.6 24 -4.4 35 35 N 20 31 29.79 1009 10 16 0.00 0.00
2:53 pm 14:53 Mostly Cloudy 49 9.4 27 -2.8 43 43 N 16 26 29.81 1010 10 16 0.00 0.00
3:53 pm 15:53 Cloudy 46 7.8 28 -2.2 50 50 NNE 12 19 29.83 1010 10 16 0.00 0.00
4:53 pm 16:53 Cloudy 44 6.7 27 -2.8 51 51 N 20 31 29.88 1012 10 16 0.00 0.00
5:53 pm 17:53 Mostly Cloudy with Light Rain 37 2.8 33 0.6 86 86 N 17 28 29.93 1014 10 16 0.01 0.25
6:34 pm 18:34 Cloudy 37 2.8 33 0.6 86 86 NNW 9 15 29.99 1016 10 16 0.00 0.00
6:53 pm 18:53 Cloudy 37 2.8 33 0.6 86 86 NNW 13 20 29.96 1014 10 16 0.00 0.00
7:53 pm 19:53 Cloudy 36 2.2 33 0.6 89 89 WNW 14 22 29.97 1015 10 16 0.00 0.00
8:53 pm 20:53 Cloudy 36 2.2 32 0 86 86 WNW 15 24 30.01 1016 10 16 0.00 0.00
9:53 pm 21:53 Mostly Cloudy 36 2.2 30 -1.1 79 79 WNW 14 22 30.02 1017 10 16 0.00 0.00
10:53 pm 22:53 Mostly Cloudy 35 1.7 28 -2.2 76 76 W 9 15 30.06 1018 10 16 0.00 0.00
11:53 pm 23:53 Mostly Cloudy 36 2.2 27 -2.8 70 70 NW 13 20 30.07 1018 10 16 0.00 0.00

Powered by AerisWeather